Location: Betzi
(47.2343°N, 9.5260°E)
Time: 15:51:11
(UTC+00:00)

Cosmos 1455 Rocket - Pass Details

Date: 27 May 2022
Orbit: 604 x 630 km, 82.5° (Epoch: 06 July)

Event Time Altitude Azimuth Distance (km) Brightness Sun altitude
Rises 00:34:10 0° 350° (N) 2,933 7.6 -19.4°
Reaches altitude 10° 00:36:25 10° 351° (N) 2,019 6.6 -19.3°
Maximum altitude 00:40:55 90° 134° (SE) 635 3.0 -19.1°
Enters shadow 00:42:33 39° 172° (S) 943 3.5 -19.0°
